"Platform","Muskegon M45 ReCON Buoy"
"Latitude (deg)",43.230490
"Longitude (deg)",-86.467410
"Water Depth (m)",46.6
"Sensor Device","AirMar Weather Station Model 200WX"
"Sensor Serial No.","3493524"
"Sensor Height","2.5 meters above water surface"
"Sensor Type","GPS Altitude"
"Sensor Units","meters"
"Measurement","Best value in 2 minute sampling period"
"Time means","Time at end of averaging period (UTC time zone)"

"Note:","This data was collected for research purposes."
"Note:","Minimal quality checking has been performed so data may contain known or unknown errors."
"Note:","Data provided by NOAA. Please credit NOAA."
"Note:","For more info see www.glerl.noaa.gov/res/recon"

"Time (UTC)","Altitude"
"YYYY/MM/DD HH:MM","m"
2020/07/30 15:02, 179.9
2020/07/30 15:04, 179.8
2020/07/30 15:06, 179.9
2020/07/30 15:32, 182.4
2020/07/30 16:02, 178.3
2020/07/30 16:04, 178
2020/07/30 16:06, 178
2020/07/30 16:08, 178
2020/07/30 16:10, 177.9
2020/07/30 16:12, 177.8
2020/07/30 16:14, 177.7
2020/07/30 16:16, 177.7
2020/07/30 16:18, 177.7
2020/07/30 16:20, 178.5
2020/07/30 16:22, 178.3
2020/07/30 16:24, 178.2
2020/07/30 16:26, 178.6
2020/07/30 16:28, 178.2
2020/07/30 16:30, 178
2020/07/30 16:32, 177.8
2020/07/30 17:02, 178.6
2020/07/30 17:04, 178.1
2020/07/30 17:06, 178.3
2020/07/30 17:08, 178.3
2020/07/30 17:10, 178
2020/07/30 17:12, 177.6
2020/07/30 17:14, 179
2020/07/30 17:16, 178.3
2020/07/30 17:18, 178.4
2020/07/30 17:20, 178.5
2020/07/30 17:22, 178.4
2020/07/30 17:24, 178.9
2020/07/30 17:26, 178.9
2020/07/30 17:28, 178.7
2020/07/30 17:30, 179
2020/07/30 17:32, 178.9
2020/07/30 18:02, 179.3
2020/07/30 18:04, 179.2
2020/07/30 18:06, 179.4
2020/07/30 18:08, 179
2020/07/30 18:10, 178.8
2020/07/30 18:12, 178.7
2020/07/30 18:14, 178.7
2020/07/30 18:16, 178.5
2020/07/30 18:18, 178.2
2020/07/30 18:20, 178.2
2020/07/30 18:22, 178.1
2020/07/30 18:24, 178.2
2020/07/30 18:26, 178
2020/07/30 18:28, 178.2
2020/07/30 18:30, 178.3
2020/07/30 18:32, 178.1
2020/07/30 19:02, 178.1
2020/07/30 19:04, 178.3
2020/07/30 19:06, 178.6
2020/07/30 19:08, 178.7
2020/07/30 19:10, 178.9
2020/07/30 19:12, 179.3
2020/07/30 19:14, 179.2
2020/07/30 19:16, 179.1
2020/07/30 19:18, 179.4
2020/07/30 19:20, 179.3
2020/07/30 19:22, 178.8
2020/07/30 19:24, 178.8
2020/07/30 19:26, 178.6
2020/07/30 19:28, 178.9
2020/07/30 19:30, 179.2
2020/07/30 19:32, 179
2020/07/30 20:02, 177.8
2020/07/30 20:04, 177.8
2020/07/30 20:06, 177.4
2020/07/30 20:08, 177.5
2020/07/30 20:10, 177.2
2020/07/30 20:12, 177.1
2020/07/30 20:14, 176.7
2020/07/30 20:16, 176.7
2020/07/30 20:18, 176.8
2020/07/30 20:20, 176.7
2020/07/30 20:22, 176.9
2020/07/30 20:24, 176.9
2020/07/30 20:26, 177.2
2020/07/30 20:28, 177.4
2020/07/30 20:30, 177.7
2020/07/30 20:32, 177.8
2020/07/30 21:02, 178.9
2020/07/30 21:04, 179.4
2020/07/30 21:06, 179.7
2020/07/30 21:08, 179.5
2020/07/30 21:10, 179.7
2020/07/30 21:12, 179.7
2020/07/30 21:14, 179.6
2020/07/30 21:16, 179.6
2020/07/30 21:18, 179.6
2020/07/30 21:20, 179.8
2020/07/30 21:22, 179.4
2020/07/30 21:24, 179.2
2020/07/30 21:26, 178.7
2020/07/30 21:28, 178.8
2020/07/30 21:30, 179.3
2020/07/30 21:32, 179.6
2020/07/30 22:02, 179.1
2020/07/30 22:04, 179
2020/07/30 22:06, 179.3
2020/07/30 22:08, 179.7
2020/07/30 22:10, 179.9
2020/07/30 22:12, 179.9
2020/07/30 22:14, 179.6
2020/07/30 22:16, 179.7
2020/07/30 22:18, 179.5
2020/07/30 22:20, 179.6
2020/07/30 22:22, 179.5
2020/07/30 22:24, 179.9
2020/07/30 22:26, 179.5
2020/07/30 22:28, 179.7
2020/07/30 22:30, 179.1
2020/07/30 22:32, 178.3
2020/07/30 23:02, 177
2020/07/30 23:04, 176.8
2020/07/30 23:06, 176.9
2020/07/30 23:08, 177
2020/07/30 23:10, 177
2020/07/30 23:12, 177.4
2020/07/30 23:14, 177.7
2020/07/30 23:16, 177.6
2020/07/30 23:18, 177.3
2020/07/30 23:20, 177.2
2020/07/30 23:22, 177.3
2020/07/30 23:24, 177.3
2020/07/30 23:26, 177.3
2020/07/30 23:28, 177.4
2020/07/30 23:30, 177
2020/07/30 23:32, 177.2
2020/07/31 00:02, 176.5
2020/07/31 00:04, 176.2
2020/07/31 00:06, 176.3
2020/07/31 00:08, 176.2
2020/07/31 00:10, 176.3
2020/07/31 00:12, 176.3
2020/07/31 00:14, 176.7
2020/07/31 00:16, 176.4
2020/07/31 00:18, 176.3
2020/07/31 00:20, 176.8
2020/07/31 00:22, 176.6
2020/07/31 00:24, 176.4
2020/07/31 00:26, 176.4
2020/07/31 00:28, 176.9
2020/07/31 00:30, 177.2
2020/07/31 00:32, 177.5
2020/07/31 00:34, 177.6
2020/07/31 00:36, 177.5
2020/07/31 00:38, 177.8
2020/07/31 00:40, 177.8
2020/07/31 00:42, 177.9
2020/07/31 00:44, 177.6
2020/07/31 00:46, 177.5
2020/07/31 00:48, 177.7
2020/07/31 00:50, 177.7
2020/07/31 00:52, 177.7
2020/07/31 00:54, 177.5
2020/07/31 00:56, 177.4
2020/07/31 00:58, 177.6
2020/07/31 01:00, 177.7
2020/07/31 01:02, 177.3
2020/07/31 01:04, 177.5
2020/07/31 01:06, 177.1
2020/07/31 01:08, 177.6
2020/07/31 01:10, 177.4
2020/07/31 01:12, 177.8
2020/07/31 01:14, 177.9
2020/07/31 01:16, 178.2
2020/07/31 01:18, 178.5
2020/07/31 01:20, 178.4
2020/07/31 01:22, 177.9
2020/07/31 01:24, 178.2
2020/07/31 01:26, 178.1
2020/07/31 01:28, 178.2
2020/07/31 01:30, 178.1
2020/07/31 01:32, 178.5
2020/07/31 02:02, 179.5
2020/07/31 02:04, 179.3
2020/07/31 02:06, 179.4
2020/07/31 02:08, 179.5
2020/07/31 02:10, 179.1
2020/07/31 02:12, 179
2020/07/31 02:14, 179.2
2020/07/31 02:16, 179.3
2020/07/31 02:18, 179.3
2020/07/31 02:20, 179.4
2020/07/31 02:22, 179.2
2020/07/31 02:24, 179.6
2020/07/31 02:26, 179.5
2020/07/31 02:28, 179.3
2020/07/31 02:30, 179.4
2020/07/31 02:32, 179.4
2020/07/31 03:02, 179.8
2020/07/31 03:04, 179.7
2020/07/31 03:06, 180
2020/07/31 03:08, 180
2020/07/31 03:10, 180.5
2020/07/31 03:12, 180.1
2020/07/31 03:14, 180.5
2020/07/31 03:16, 180.9
2020/07/31 03:18, 180.5
2020/07/31 03:20, 180.2
2020/07/31 03:22, 180.4
2020/07/31 03:24, 180.3
2020/07/31 03:26, 180.2
2020/07/31 03:28, 179.8
2020/07/31 03:30, 179.8
2020/07/31 03:32, 179.7
2020/07/31 04:02, 179.2
2020/07/31 04:04, 179.4
2020/07/31 04:06, 179.4
2020/07/31 04:08, 179.4
2020/07/31 04:10, 179.2
2020/07/31 04:12, 179
2020/07/31 04:14, 178.6
2020/07/31 04:16, 178.5
2020/07/31 04:18, 179.3
2020/07/31 04:20, 179.5
2020/07/31 04:22, 179.9
2020/07/31 04:24, 179.7
2020/07/31 04:26, 179.9
2020/07/31 04:28, 179.8
2020/07/31 04:30, 179.6
2020/07/31 04:32, 179.6
2020/07/31 05:02, 178.8
2020/07/31 05:04, 179.2
2020/07/31 05:06, 179.4
2020/07/31 05:08, 179.4
2020/07/31 05:10, 179.5
2020/07/31 05:12, 179.6
2020/07/31 05:14, 179.9
2020/07/31 05:16, 179.9
2020/07/31 05:18, 179.7
2020/07/31 05:20, 179.8
2020/07/31 05:22, 179.7
2020/07/31 05:24, 179.6
2020/07/31 05:26, 179.4
2020/07/31 05:28, 178.9
2020/07/31 05:30, 178.9
2020/07/31 05:32, 178.8
2020/07/31 06:02, 177.8
2020/07/31 06:04, 177.8
2020/07/31 06:06, 178.2
2020/07/31 06:08, 178
2020/07/31 06:10, 177.8
2020/07/31 06:12, 177.8
2020/07/31 06:14, 177.4
2020/07/31 06:16, 177.4
2020/07/31 06:18, 177.5
2020/07/31 06:20, 177.4
2020/07/31 06:22, 177.4
2020/07/31 06:24, 177.4
2020/07/31 06:26, 176.9
2020/07/31 06:28, 176.9
2020/07/31 06:30, 177
2020/07/31 06:32, 177.3
2020/07/31 07:02, 176.9
2020/07/31 07:04, 176.5
2020/07/31 07:06, 176.9
2020/07/31 07:08, 177.3
2020/07/31 07:10, 177.4
2020/07/31 07:12, 177.3
2020/07/31 07:14, 177.5
2020/07/31 07:16, 177.7
2020/07/31 07:18, 177.7
2020/07/31 07:20, 177.4
2020/07/31 07:22, 177.5
2020/07/31 07:24, 177.5
2020/07/31 07:26, 177.6
2020/07/31 07:28, 177.6
2020/07/31 07:30, 177.7
2020/07/31 07:32, 177.6
2020/07/31 08:02, 177
2020/07/31 08:04, 177.3
2020/07/31 08:06, 177.4
2020/07/31 08:08, 177
2020/07/31 08:10, 177.4
2020/07/31 08:12, 178.2
2020/07/31 08:14, 177.3
2020/07/31 08:16, 178.3
2020/07/31 08:18, 178.1
2020/07/31 08:20, 178
2020/07/31 08:22, 178.7
2020/07/31 08:24, 179
2020/07/31 08:26, 179.4
2020/07/31 08:28, 179
2020/07/31 08:30, 179.1
2020/07/31 08:32, 178.8
2020/07/31 09:02, 178.5
2020/07/31 09:04, 178.4
2020/07/31 09:06, 178.5
2020/07/31 09:08, 178.8
2020/07/31 09:10, 178.8
2020/07/31 09:12, 179.2
2020/07/31 09:14, 179
2020/07/31 09:16, 179.3
2020/07/31 09:18, 179.5
2020/07/31 09:20, 179.5
2020/07/31 09:22, 178.7
2020/07/31 09:24, 177.9
2020/07/31 09:26, 177.6
2020/07/31 09:28, 177.6
2020/07/31 09:30, 177.7
2020/07/31 09:32, 177.7
2020/07/31 10:02, 176.4
2020/07/31 10:04, 176.4
2020/07/31 10:06, 176.7
2020/07/31 10:08, 176.6
2020/07/31 10:10, 176.9
2020/07/31 10:12, 177
2020/07/31 10:14, 177.2
2020/07/31 10:16, 177.4
2020/07/31 10:18, 177.5
2020/07/31 10:20, 177.8
2020/07/31 10:22, 177.8
2020/07/31 10:24, 178.1
2020/07/31 10:26, 178.3
2020/07/31 10:28, 178
2020/07/31 10:30, 178.2
2020/07/31 10:32, 178
2020/07/31 11:02, 177.2
2020/07/31 11:04, 177
2020/07/31 11:06, 176.9
2020/07/31 11:08, 177.3
2020/07/31 11:10, 177.2
2020/07/31 11:12, 177.3
2020/07/31 11:14, 177.6
2020/07/31 11:16, 177.6
2020/07/31 11:18, 177.7
2020/07/31 11:20, 177
2020/07/31 11:22, 176.8
2020/07/31 11:24, 177
2020/07/31 11:26, 176.7
2020/07/31 11:28, 176.8
2020/07/31 11:30, 176.7
2020/07/31 11:32, 176.8
2020/07/31 12:02, 180.5
2020/07/31 12:04, 181
2020/07/31 12:06, 181.6
2020/07/31 12:08, 181.9
2020/07/31 12:10, 181.4
2020/07/31 12:12, 181.1
2020/07/31 12:14, 180.9
2020/07/31 12:16, 181.1
2020/07/31 12:18, 181.2
2020/07/31 12:20, 181.2
2020/07/31 12:22, 181.1
2020/07/31 12:24, 180.8
2020/07/31 12:26, 180.3
2020/07/31 12:28, 179.9
2020/07/31 12:30, 180
2020/07/31 12:32, 180.3
2020/07/31 13:02, 181.2
2020/07/31 13:04, 181.2
2020/07/31 13:06, 181.3
2020/07/31 13:08, 181.2
2020/07/31 13:10, 181.3
2020/07/31 13:12, 181.6
2020/07/31 13:14, 181.4
2020/07/31 13:16, 181.4
2020/07/31 13:18, 181.9
2020/07/31 13:20, 181.9
2020/07/31 13:22, 181.4
2020/07/31 13:24, 182.2
2020/07/31 13:26, 182
2020/07/31 13:28, 181.3
2020/07/31 13:30, 182.1
2020/07/31 13:32, 182.2
2020/07/31 14:02, 179.5
2020/07/31 14:04, 179.4
2020/07/31 14:06, 179.4
2020/07/31 14:08, 179.5
2020/07/31 14:10, 179.7
2020/07/31 14:12, 180
2020/07/31 14:14, 179.8
2020/07/31 14:16, 180.2
2020/07/31 14:18, 180.2
2020/07/31 14:20, 179.6
2020/07/31 14:22, 179.2
2020/07/31 14:24, 179.5
2020/07/31 14:26, 178.9
2020/07/31 14:28, 179.2
2020/07/31 14:30, 179.1
2020/07/31 14:32, 179.4
2020/07/31 15:02, 180
2020/07/31 15:04, 179.8
2020/07/31 15:06, 180
2020/07/31 15:08, 180
2020/07/31 15:10, 180.1
2020/07/31 15:12, 179.7
2020/07/31 15:14, 179.8
2020/07/31 15:16, 179.6
2020/07/31 15:18, 179.4
2020/07/31 15:20, 179.5
2020/07/31 15:22, 179.7
2020/07/31 15:24, 179.2
2020/07/31 15:26, 178.9
2020/07/31 15:28, 179.3
2020/07/31 15:30, 179.2
2020/07/31 15:32, 178.9
2020/07/31 16:02, 179.7
2020/07/31 16:04, 179.7
2020/07/31 16:06, 179.2
2020/07/31 16:08, 179.4
2020/07/31 16:10, 179.4
2020/07/31 16:12, 179.2
2020/07/31 16:14, 179.2
2020/07/31 16:16, 179
2020/07/31 16:18, 178.7
2020/07/31 16:20, 179.1
2020/07/31 16:22, 178.6
2020/07/31 16:24, 178.2
2020/07/31 16:26, 178.1
2020/07/31 16:28, 178.7
2020/07/31 16:30, 178.6
2020/07/31 16:32, 178.5
2020/07/31 17:02, 179.1
2020/07/31 17:04, 179
2020/07/31 17:06, 179.1
2020/07/31 17:08, 179.1
2020/07/31 17:10, 179.9
2020/07/31 17:12, 179.6
2020/07/31 17:14, 179.7
2020/07/31 17:16, 179.8
2020/07/31 17:18, 179.8
2020/07/31 17:20, 180
2020/07/31 17:22, 180
2020/07/31 17:24, 179.8
2020/07/31 17:26, 179.7
2020/07/31 17:28, 179.4
2020/07/31 17:30, 179.5
2020/07/31 17:32, 179.5
2020/07/31 17:34, 179.8
2020/07/31 17:36, 180
2020/07/31 17:38, 179.8
2020/07/31 17:40, 179.7
2020/07/31 17:42, 179.5
2020/07/31 17:44, 179.5
2020/07/31 17:46, 179.7
2020/07/31 17:48, 179.6
2020/07/31 17:50, 179.5
2020/07/31 17:52, 179.7
2020/07/31 17:54, 179.8
2020/07/31 17:56, 179.7
2020/07/31 17:58, 180
2020/07/31 18:00, 179.7
2020/07/31 18:02, 179.7
2020/07/31 18:04, 179.8
2020/07/31 18:06, 179.7
2020/07/31 18:08, 179.5
2020/07/31 18:10, 179.3
2020/07/31 18:12, 179.1
2020/07/31 18:14, 179.1
2020/07/31 18:16, 178.9
2020/07/31 18:18, 178.7
2020/07/31 18:20, 178.5
2020/07/31 18:22, 178.6
2020/07/31 18:24, 178.8
2020/07/31 18:26, 178.8
2020/07/31 18:28, 178.9
2020/07/31 18:30, 179
2020/07/31 18:32, 178.6
2020/07/31 19:02, 178.8
2020/07/31 19:04, 179.4
2020/07/31 19:06, 179.7
2020/07/31 19:08, 179.8
2020/07/31 19:12, 179.8
2020/07/31 19:14, 179.8
2020/07/31 19:16, 179.8
2020/07/31 19:18, 179.6
2020/07/31 19:20, 179.5
2020/07/31 19:22, 179.7
2020/07/31 19:24, 179.2
2020/07/31 19:26, 179
2020/07/31 19:28, 179.1
2020/07/31 19:30, 178.9
2020/07/31 19:32, 178.9
2020/07/31 20:02, 178.3
2020/07/31 20:04, 178.3
2020/07/31 20:06, 178.4
2020/07/31 20:08, 178.1
2020/07/31 20:10, 178.2
2020/07/31 20:12, 178
2020/07/31 20:14, 178
2020/07/31 20:16, 178.2
2020/07/31 20:18, 178.2
2020/07/31 20:20, 178.1
2020/07/31 20:22, 177.7
2020/07/31 20:24, 178.1
2020/07/31 20:26, 178
2020/07/31 20:28, 178.2
2020/07/31 20:30, 178.1
2020/07/31 20:32, 178.1
2020/07/31 21:02, 178.6
2020/07/31 21:04, 178.7
2020/07/31 21:06, 178.7
2020/07/31 21:08, 178.8
2020/07/31 21:10, 178.6
2020/07/31 21:12, 178.7
2020/07/31 21:14, 178.7
2020/07/31 21:16, 178.5
2020/07/31 21:18, 178.9
2020/07/31 21:20, 178.2
2020/07/31 21:22, 178.5
2020/07/31 21:24, 178.3
2020/07/31 21:26, 178.4
2020/07/31 21:28, 178.4
2020/07/31 21:30, 178.2
2020/07/31 21:32, 178.5
2020/07/31 22:02, 178.9
2020/07/31 22:04, 179
2020/07/31 22:06, 179.1
2020/07/31 22:08, 179.3
2020/07/31 22:10, 179.4
2020/07/31 22:12, 179.3
2020/07/31 22:14, 179.5
2020/07/31 22:16, 180
2020/07/31 22:18, 180
2020/07/31 22:20, 180.2
2020/07/31 22:22, 180.2
2020/07/31 22:24, 180.6
2020/07/31 22:28, 182.7
2020/07/31 22:30, 178.2
2020/07/31 22:32, 176.9
2020/07/31 23:06, 180
2020/07/31 23:08, 184.9
2020/07/31 23:10, 185.2
2020/07/31 23:12, 175.3
2020/07/31 23:14, 173.2
2020/07/31 23:16, 183.1
2020/07/31 23:32, 177.7
2020/07/31 23:34, 178
2020/07/31 23:36, 177.8
2020/07/31 23:38, 177.7
2020/07/31 23:44, 163.9
2020/07/31 23:46, 173
2020/07/31 23:50, 176.9
2020/07/31 23:52, 177.3
2020/07/31 23:54, 177.4
2020/07/31 23:56, 177.4
2020/07/31 23:58, 177.3
2020/08/01 00:00, 177.9
2020/08/01 00:02, 177.5
2020/08/01 00:04, 177.4
2020/08/01 00:06, 177.4
2020/08/01 00:08, 177.7
2020/08/01 00:10, 177.5
2020/08/01 00:12, 177.4
2020/08/01 00:14, 177.4
2020/08/01 00:16, 177.5
2020/08/01 00:18, 177.1
2020/08/01 00:20, 177.5
2020/08/01 00:22, 177.8
2020/08/01 00:24, 177.7
2020/08/01 00:26, 177.9
2020/08/01 00:28, 177.8
2020/08/01 00:30, 177.8
2020/08/01 00:32, 178
2020/08/01 01:04, 188.7
2020/08/01 01:06, 187.8
2020/08/01 01:08, 179.4
2020/08/01 01:20, 193.2
2020/08/01 01:24, 175
2020/08/01 01:30, 175.3
2020/08/01 02:06, 189.5
2020/08/01 02:10, 198.8
2020/08/01 02:20, 176.6
2020/08/01 02:26, 175.2
2020/08/01 16:30, 179.7
2020/08/01 16:32, 179.8
2020/08/01 17:02, 180.4
2020/08/01 17:04, 180.7
2020/08/01 17:06, 181.6
2020/08/01 17:08, 181.4
2020/08/01 17:10, 180.8
2020/08/01 17:12, 181.1
2020/08/01 17:14, 181.3
2020/08/01 17:16, 181.4
2020/08/01 17:18, 181.4
2020/08/01 17:20, 180.3
2020/08/01 17:22, 180
2020/08/01 17:24, 179.6
2020/08/01 17:26, 179.4
2020/08/01 17:28, 179.8
2020/08/01 17:30, 179.9
2020/08/01 17:32, 180.1
2020/08/01 18:02, 179.2
2020/08/01 18:04, 179.1
2020/08/01 18:06, 178.5
2020/08/01 18:08, 178.3
2020/08/01 18:10, 178.8
2020/08/01 18:12, 178.5
2020/08/01 18:14, 178.2
2020/08/01 18:16, 178.3
2020/08/01 18:18, 178.4
2020/08/01 18:20, 178.4
2020/08/01 18:22, 178.6
2020/08/01 18:24, 178.5
2020/08/01 18:26, 178.5
2020/08/01 18:28, 178.6
2020/08/01 18:30, 178.7
2020/08/01 18:32, 178.2
2020/08/01 19:02, 179.2
2020/08/01 19:04, 179
2020/08/01 19:06, 179.2
2020/08/01 19:08, 179.5
2020/08/01 19:22, 198.1
2020/08/01 19:26, 179.2
2020/08/01 19:28, 215.1
2020/08/01 20:02, 183.9
2020/08/01 20:04, 182.7
2020/08/01 20:08, 179.4
2020/08/01 20:12, 177.1
2020/08/01 20:16, 175.3
2020/08/01 20:18, 203.6
2020/08/01 20:20, 196.3
2020/08/01 20:22, 186.1
2020/08/01 20:28, 174.3
2020/08/01 21:02, 79.2
2020/08/01 21:06, 57
2020/08/01 21:10, 34.9
2020/08/03 21:12, 168.5
2020/08/03 21:18, 174.6
2020/08/03 22:44, 126
2020/08/03 22:46, 127.9
